Regional Weather Roundup
Issued by NWS Green Bay, WI

Home | Current Version | Previous Version | Text Only | Print | Product List | Glossary On
Versions: 1 2 3 4 5 6 7 8 9 10 11 12 13 14 15 16 17 18 19 20 21 22 23 24 25 26 27 28 29 30 31 32 33 34 35 36 37 38 39 40 41 42 43 44 45 46 47 48 49 50
000
ASUS43 KGRB 261100
RWRGRB

NORTH-CENTRAL AND NORTHEAST WISCONSIN REGIONAL WEATHER ROUNDUP
NATIONAL WEATHER SERVICE GREEN BAY WI
500 AM CST SUN FEB 26 2017

WIZ005-009-010>012-018-019-261200-
NORTH CENTRAL WISCONSIN

CITY           SKY/WX    TMP DP  RH WIND       PRES   REMARKS
IRONWOOD       FLURRIES  21  16  81 SW12G20   29.67F WCI   9
MANITOWISH WTR NOT AVBL
ARBOR VITAE    NOT AVBL
EAGLE RIVER    NOT AVBL
LAND O LAKES   NOT AVBL
RHINELANDER    CLOUDY    19  14  81 SW10      29.71F WCI   7
PHILLIPS       NOT AVBL
ANTIGO         NOT AVBL
TOMAHAWK       NOT AVBL
MERRILL        NOT AVBL
$$

WIZ013-073-261200-
NORTHEAST WISCONSIN

CITY           SKY/WX    TMP DP  RH WIND       PRES   REMARKS
IRON MOUNTAIN  CLOUDY    21  11  65 S6        29.75F
MARINETTE      CLOUDY    19  14  81 SW9       29.86F WCI   8
$$

WIZ017-030-035>037-045-261200-
CENTRAL WISCONSIN

CITY           SKY/WX    TMP DP  RH WIND       PRES   REMARKS
MEDFORD        NOT AVBL
WAUSAU         CLOUDY    20  15  81 S10       29.77F WCI   9
MOSINEE        NOT AVBL
MARSHFIELD     CLOUDY    20  14  77 S10       29.76F WCI   9
WISC RAPIDS    CLOUDY    22  17  81 S9        29.82F
STEVENS POINT  NOT AVBL
WAUPACA        NOT AVBL
SHAWANO        MOCLDY    21  17  84 S3        29.84F
CLINTONVILLE   NOT AVBL
WAUTOMA        LGT SNOW  21  17  84 S8        29.87F FOG
$$

WIZ038-039-048-051-261200-
FOX VALLEY

CITY           SKY/WX    TMP DP  RH WIND       PRES   REMARKS
NWS GREEN BAY  CLOUDY    22  19  89 S9        29.88F
APPLETON       NOT AVBL
OSHKOSH        CLOUDY    22  15  75 S12       29.89F
FOND DU LAC    CLOUDY    22  14  71 S8        29.90F
$$

WIZ022-050-052-261200-
EAST CENTRAL WISCONSIN

CITY           SKY/WX    TMP DP  RH WIND       PRES   REMARKS
EPHRAIM        NOT AVBL
WASHINGTON ISL NOT AVBL
STURGEON BAY   CLOUDY    21  16  81 SW10      29.88F WCI  10
MANITOWOC      NOT AVBL
SHEBOYGAN      CLOUDY    20  13  74 S10       29.93F WCI   9
$$

LMZ563-521-522-541>543-261200-
LAKESHORE

STATION/POSITION TIME  TEMP    WIND        PRES    VSBY  WAVE
                       AIR SEA DIR/SP/G                  HT/PER
                 (UTC) (F)     (DEG/KT/KT) (MB)    (MI)  (FT/S)
SHEBOYGAN LKSHOR 1000   22     220/  9/ 10 1015.1F
KEWAUNEE LKSHORE 1030   23     240/  7/ 11 1012.5F
NORTHPORT PIER   1040   23        CALM     1011.5S
SISTER BAY LKSHO 1005   22        CALM       N/A
MENOMINEE LKSHOR 1030   20     210/ 11/ 13 1010.9F
$$




USA.gov is the U.S. government's official web portal to all federal, state and local government web resources and services.